This demonstration page uses our WeatherBlox Daily Observations layout. Learn more.

36.17497, -115.13722

Hourly Observations for June 20, 2016

Temp ( °F °C ) Dew Point ( °F °C ) Humidity (%) Winds ( mph kmh ) Pressure ( in mb ) Visibility ( mi km ) Precip ( " mm )
12:53 am 00:53 Clear 91 32.8 39 3.9 16 16 NNW 3 6 29.88 1012 10 16.0934 0 0
1:53 am 01:53 Clear 90 32.2 41 5 18 18 W 3 6 29.88 1012 10 16.0934 0 0
2:53 am 02:53 Clear 87 30.6 42 5.6 21 21 N 5 7 29.88 1012 10 16.0934 0 0
3:53 am 03:53 Clear 87 30.6 38 3.3 18 18 NW 7 11 29.87 1012 10 16.0934 0 0
4:53 am 04:53 Clear 86 30 36 2.2 17 17 NW 10 17 29.88 1012 10 16.0934 0 0
5:53 am 05:53 Sunny 85 29.4 37 2.8 18 18 SSE 5 7 29.9 1013 10 16.0934 0 0
6:53 am 06:53 Sunny 90 32.2 36 2.2 15 15 NW 9 15 29.91 1013 10 16.0934 0 0
7:53 am 07:53 Sunny 93 33.9 39 3.9 15 15 N 7 11 29.93 1014 10 16.0934 0 0
8:53 am 08:53 Sunny 96 35.6 37 2.8 13 13 N 6 9 29.95 1014 10 16.0934 0 0
9:53 am 09:53 Sunny 99 37.2 35 1.7 11 11 Calm 29.94 1014 10 16.0934 0 0
10:53 am 10:53 Sunny 104 40 36 2.2 9 9 E 7 11 29.93 1013 10 16.0934 0 0
11:53 am 11:53 Sunny 106 41.1 36 2.2 9 9 ESE 8 13 29.91 1013 10 16.0934 0 0
12:53 pm 12:53 Sunny 108 42.2 37 2.8 9 9 SSE 12 19 29.89 1012 10 16.0934 0 0
1:53 pm 13:53 Sunny 109 42.8 34 1.1 7 7 undefined N/A 29.86 1011 10 16.0934 0 0
2:53 pm 14:53 Sunny 111 43.9 32 0 6 6 ENE 5 7 29.83 1010 10 16.0934 0 0
3:42 pm 15:42 Sunny 113 45 28 -2 5 5 W 16 26 29.62 1003 10 16.0934 0 0
3:53 pm 15:53 Sunny 114 45.6 28 -2.2 5 5 W 15 24 29.81 1010 10 16.0934 0 0
4:53 pm 16:53 Sunny 113 45 25 -3.9 5 5 WSW 16 26 29.79 1009 10 16.0934 0 0
5:53 pm 17:53 Sunny 112 44.4 29 -1.7 6 6 WSW 20 31 29.77 1008 10 16.0934 0 0
6:53 pm 18:53 Sunny 110 43.3 31 -0.6 6 6 WSW 14 22 29.78 1009 10 16.0934 0 0
7:53 pm 19:53 Sunny 108 42.2 27 -2.8 6 6 W 14 22 29.78 1008 10 16.0934 0 0
8:53 pm 20:53 Clear 105 40.6 31 -0.6 7 7 W 7 11 29.79 1009 10 16.0934 0 0
9:53 pm 21:53 Clear 102 38.9 34 1.1 9 9 W 8 13 29.81 1010 10 16.0934 0 0
10:53 pm 22:53 Clear 99 37.2 34 1.1 10 10 Calm 29.82 1010 10 16.0934 0 0
11:53 pm 23:53 Clear 99 37.2 33 0.6 10 10 W 6 9 29.82 1010 10 16.0934 0 0

Powered by AerisWeather